When you browse on this site, cookies collect data to enhance your experience and personalize the content and advertising you see.
Visit our Privacy Policy to learn more. By continuing to use the site, you agree to this use of cookies and data.
  • In Hungary
  • List of Countries
  • For 7 days
  • Water Temperature
  • Satellite Maps
  • Weather Map
  • News
  • Weather Widgets
  • user-avatar
    Login

    Hourly Weather Huayuan

    Today, 13 December, Thursday

    Time Temperature Precipitation Wind Pressure Humidity
    00:00 +4°C° 0 mm 1 mps 739 mmHg 52%
    01:00 +2°C° 0 mm 0 mps 739 mmHg 55%
    02:00 +2°C° 0 mm 0 mps 739 mmHg 57%
    03:00 +2°C° 0 mm 0 mps 738 mmHg 59%
    04:00 +3°C° 0 mm 0 mps 738 mmHg 60%
    05:00 +3°C° 0 mm 0 mps 738 mmHg 61%
    06:00 +3°C° 0 mm 0 mps 738 mmHg 61%
    07:00 +2°C° 0 mm 0 mps 739 mmHg 64%
    08:00 +4°C° 0 mm 0 mps 739 mmHg 60%
    09:00 +6°C° 0 mm 0 mps 740 mmHg 55%
    10:00 +9°C° 0 mm 1 mps 740 mmHg 51%
    11:00 +10°C° 0 mm 1 mps 739 mmHg 49%
    12:00 +11°C° 0 mm 1 mps 738 mmHg 48%
    13:00 +12°C° 0 mm 1 mps 737 mmHg 47%
    14:00 +11°C° 0 mm 1 mps 737 mmHg 49%
    15:00 +10°C° 0 mm 2 mps 737 mmHg 51%
    16:00 +9°C° 0 mm 2 mps 736 mmHg 53%
    17:00 +9°C° 0 mm 1 mps 737 mmHg 56%
    18:00 +8°C° 0 mm 1 mps 737 mmHg 60%
    19:00 +4°C° 0 mm 1 mps 738 mmHg 54%
    20:00 +4°C° 0 mm 1 mps 738 mmHg 54%
    21:00 +4°C° 0 mm 1 mps 739 mmHg 55%
    22:00 +3°C° 0 mm 0 mps 739 mmHg 55%
    23:00 +2°C° 0 mm 0 mps 739 mmHg 56%

    Tomorrow, 14 December, Friday

    Time Temperature Precipitation Wind Pressure Humidity
    00:00 +2°C° 0 mm 0 mps 738 mmHg 56%
    01:00 +2°C° 0 mm 0 mps 738 mmHg 57%
    02:00 +2°C° 0 mm 0 mps 738 mmHg 57%
    03:00 +2°C° 0 mm 0 mps 738 mmHg 58%
    04:00 +1°C° 0 mm 0 mps 738 mmHg 59%
    05:00 +2°C° 0 mm 0 mps 738 mmHg 59%
    06:00 +2°C° 0 mm 0 mps 738 mmHg 60%
    07:00 +2°C° 0 mm 0 mps 738 mmHg 60%
    08:00 +5°C° 0 mm 1 mps 739 mmHg 56%
    09:00 +7°C° 0 mm 1 mps 739 mmHg 52%
    10:00 +9°C° 0 mm 1 mps 739 mmHg 48%
    11:00 +10°C° 0 mm 1 mps 738 mmHg 48%
    12:00 +11°C° 0 mm 1 mps 738 mmHg 48%
    13:00 +13°C° 0 mm 1 mps 737 mmHg 48%
    14:00 +12°C° 0 mm 1 mps 737 mmHg 52%
    15:00 +12°C° 0 mm 1 mps 736 mmHg 55%
    16:00 +11°C° 0 mm 1 mps 736 mmHg 59%
    17:00 +10°C° 0 mm 1 mps 736 mmHg 64%
    18:00 +9°C° 0 mm 1 mps 736 mmHg 69%
    19:00 +7°C° 0 mm 1 mps 736 mmHg 74%
    20:00 +7°C° 0 mm 1 mps 737 mmHg 74%
    21:00 +7°C° 0 mm 1 mps 737 mmHg 75%
    22:00 +7°C° 0 mm 1 mps 737 mmHg 76%
    23:00 +7°C° 0 mm 1 mps 737 mmHg 76%

    Day after tomorrow, 15 December, Saturday

    Time Temperature Precipitation Wind Pressure Humidity
    00:00 +7°C° 0 mm 1 mps 737 mmHg 75%
    01:00 +8°C° 0 mm 1 mps 737 mmHg 75%
    02:00 +7°C° 0 mm 1 mps 737 mmHg 76%
    03:00 +7°C° 0 mm 1 mps 736 mmHg 77%
    04:00 +7°C° 0 mm 1 mps 736 mmHg 77%
    05:00 +7°C° 0 mm 1 mps 736 mmHg 78%
    06:00 +7°C° 0 mm 1 mps 736 mmHg 78%
    07:00 +7°C° 0 mm 1 mps 737 mmHg 79%
    08:00 +8°C° 0.1 mm 1 mps 737 mmHg 78%
    09:00 +8°C° 0.1 mm 1 mps 737 mmHg 77%
    10:00 +8°C° 0.1 mm 1 mps 738 mmHg 76%
    11:00 +9°C° 0.1 mm 1 mps 737 mmHg 77%
    12:00 +9°C° 0.1 mm 1 mps 736 mmHg 78%
    13:00 +9°C° 0.1 mm 1 mps 736 mmHg 79%
    14:00 +9°C° 0.2 mm 1 mps 735 mmHg 82%
    15:00 +8°C° 0.2 mm 1 mps 735 mmHg 84%
    16:00 +8°C° 0.2 mm 1 mps 735 mmHg 87%
    17:00 +8°C° 0.3 mm 1 mps 736 mmHg 88%
    18:00 +8°C° 0.3 mm 1 mps 736 mmHg 90%
    19:00 +8°C° 0.3 mm 1 mps 737 mmHg 91%
    20:00 +7°C° 0.4 mm 0 mps 737 mmHg 92%
    21:00 +7°C° 0.4 mm 0 mps 737 mmHg 93%
    22:00 +7°C° 0.4 mm 0 mps 738 mmHg 93%
    23:00 +6°C° 0.3 mm 0 mps 738 mmHg 93%

    16 December, Sunday

    Time Temperature Precipitation Wind Pressure Humidity
    00:00 +7°C° 0.3 mm 1 mps 737 mmHg 93%
    01:00 +7°C° 0.3 mm 1 mps 737 mmHg 94%
    02:00 +7°C° 0.2 mm 1 mps 737 mmHg 94%
    03:00 +7°C° 0.2 mm 1 mps 737 mmHg 94%
    04:00 +7°C° 0.2 mm 1 mps 737 mmHg 94%
    05:00 +6°C° 0.1 mm 0 mps 737 mmHg 93%
    06:00 +6°C° 0.1 mm 0 mps 738 mmHg 93%
    07:00 +6°C° 0.1 mm 0 mps 738 mmHg 93%
    08:00 +8°C° 0 mm 0 mps 738 mmHg 88%
    09:00 +9°C° 0 mm 0 mps 738 mmHg 84%
    10:00 +10°C° 0 mm 0 mps 739 mmHg 80%
    11:00 +11°C° 0 mm 1 mps 738 mmHg 77%
    12:00 +12°C° 0 mm 1 mps 737 mmHg 75%
    13:00 +12°C° 0 mm 1 mps 736 mmHg 73%
    14:00 +12°C° 0 mm 1 mps 736 mmHg 72%
    15:00 +12°C° 0 mm 1 mps 735 mmHg 72%
    16:00 +12°C° 0 mm 1 mps 735 mmHg 71%
    17:00 +11°C° 0 mm 1 mps 735 mmHg 74%
    18:00 +9°C° 0 mm 0 mps 736 mmHg 78%
    19:00 +8°C° 0 mm 0 mps 736 mmHg 81%
    20:00 +8°C° 0 mm 0 mps 736 mmHg 81%
    21:00 +8°C° 0 mm 0 mps 736 mmHg 80%
    22:00 +7°C° 0 mm 0 mps 737 mmHg 80%
    23:00 +7°C° 0 mm 0 mps 736 mmHg 79%

    17 December, Monday

    Time Temperature Precipitation Wind Pressure Humidity
    00:00 +7°C° 0 mm 0 mps 736 mmHg 78%
    01:00 +7°C° 0 mm 0 mps 736 mmHg 77%
    02:00 +6°C° 0 mm 0 mps 736 mmHg 76%
    03:00 +6°C° 0 mm 0 mps 736 mmHg 74%
    04:00 +6°C° 0 mm 0 mps 735 mmHg 73%
    05:00 +6°C° 0 mm 0 mps 736 mmHg 71%
    06:00 +6°C° 0 mm 0 mps 736 mmHg 69%
    07:00 +6°C° 0 mm 0 mps 736 mmHg 67%
    08:00 +9°C° 0 mm 0 mps 737 mmHg 58%
    09:00 +12°C° 0 mm 1 mps 737 mmHg 49%
    10:00 +15°C° 0 mm 1 mps 737 mmHg 40%
    11:00 +16°C° 0 mm 1 mps 736 mmHg 37%
    12:00 +18°C° 0 mm 1 mps 735 mmHg 34%
    13:00 +19°C° 0 mm 1 mps 734 mmHg 31%
    14:00 +18°C° 0 mm 1 mps 734 mmHg 35%
    15:00 +16°C° 0 mm 1 mps 733 mmHg 40%
    16:00 +15°C° 0 mm 1 mps 733 mmHg 44%
    17:00 +14°C° 0 mm 1 mps 733 mmHg 47%
    18:00 +12°C° 0 mm 1 mps 733 mmHg 50%
    19:00 +11°C° 0 mm 1 mps 734 mmHg 53%
    20:00 +10°C° 0 mm 1 mps 734 mmHg 53%
    21:00 +9°C° 0 mm 0 mps 734 mmHg 54%
    22:00 +9°C° 0 mm 0 mps 734 mmHg 54%
    23:00 +9°C° 0 mm 0 mps 733 mmHg 54%

    18 December, Tuesday

    Time Temperature Precipitation Wind Pressure Humidity
    00:00 +8°C° 0 mm 0 mps 733 mmHg 53%
    01:00 +8°C° 0 mm 0 mps 732 mmHg 53%
    02:00 +8°C° 0 mm 0 mps 732 mmHg 52%
    03:00 +8°C° 0 mm 0 mps 732 mmHg 52%
    04:00 +8°C° 0 mm 0 mps 731 mmHg 51%
    05:00 +8°C° 0 mm 0 mps 731 mmHg 51%
    06:00 +9°C° 0 mm 0 mps 732 mmHg 51%
    07:00 +9°C° 0 mm 0 mps 732 mmHg 51%
    08:00 +11°C° 0 mm 0 mps 732 mmHg 48%
    09:00 +13°C° 0 mm 0 mps 732 mmHg 45%
    10:00 +14°C° 0 mm 0 mps 732 mmHg 43%
    11:00 +16°C° 0 mm 1 mps 731 mmHg 42%
    12:00 +18°C° 0 mm 1 mps 730 mmHg 42%
    13:00 +19°C° 0 mm 1 mps 729 mmHg 42%
    14:00 +18°C° 0 mm 1 mps 729 mmHg 46%
    15:00 +18°C° 0 mm 1 mps 729 mmHg 50%
    16:00 +18°C° 0 mm 1 mps 728 mmHg 54%
    17:00 +15°C° 0 mm 1 mps 728 mmHg 57%
    18:00 +14°C° 0 mm 1 mps 728 mmHg 60%
    19:00 +13°C° 0 mm 1 mps 728 mmHg 63%
    20:00 +13°C° 0 mm 1 mps 728 mmHg 64%
    21:00 +13°C° 0 mm 1 mps 728 mmHg 65%
    22:00 +12°C° 0 mm 1 mps 728 mmHg 66%
    23:00 +13°C° 0 mm 1 mps 728 mmHg 67%
    Show more